Location: Unspecified
(48.2082°N, 0.0000°E)
Time: 05:20:18
(UTC+00:00)

Altair - Pass Details

Date: 26 June 2019
Orbit: 1501 x 1683 km, 47.2° (Epoch: 21 August)

Event Time Altitude Azimuth Distance (km) Brightness Sun altitude
Rises 01:27:08 0° 291° (WNW) 4,837 10.1 -16.0°
Reaches altitude 10° 01:30:33 10° 283° (WNW) 3,873 9.5 -15.8°
Maximum altitude 01:39:11 36° 222° (SW) 2,440 8.1 -15.2°
Drops below altitude 10° 01:47:59 10° 161° (SSE) 3,935 9.2 -14.6°
Sets 01:51:30 0° 153° (SSE) 4,923 9.8 -14.4°
